Hourly Data Report for October 26, 2015

All times are specified in Local Standard Time (LST). Add 1 hour to adjust for Daylight Saving Time where and when it is observed.

CORAL HARBOUR A
NUNAVUT

64°11'36.000" N
83°21'34.000" W
62.20 m
2301002
71915
YZS

Download Data

Hourly Data (October 2015)
Hourly Data Report for October 26, 2015
Temp Definition
°C
Dew Point Temp Definition
°C
Rel Hum Definition
%
Wind Dir Definition
10's deg

Wind Spd Definition
km/h
Visibility Definition
km
Stn Press Definition
kPa
Hmdx Definition


Wind Chill Definition


Weather Definition


TIME
00:00 Legend Double Dagger -19.9 -22.2 82 25 24 24.1 98.71   -31 LegendNANA
01:00 Legend Double Dagger -17.0 -20.1 77 31 23 24.1 98.70   -27 Mostly Cloudy
02:00 Legend Double Dagger -16.8 -20.7 72 30 35 24.1 98.68   -29 LegendNANA
03:00 Legend Double Dagger -18.3 -21.6 76 30 20 24.1 98.68   -28 LegendNANA
04:00 Legend Double Dagger -20.3 -23.4 77 29 15 24.1 98.67   -29 Cloudy
05:00 Legend Double Dagger -19.6 -22.4 79 32 13 24.1 98.67   -28 LegendNANA
06:00 Legend Double Dagger -18.5 -21.3 79 30 16 24.1 98.62   -28 LegendNANA
07:00 Legend Double Dagger -16.3 -19.9 74 30 25 24.1 98.60   -27 Mostly Cloudy
08:00 Legend Double Dagger -16.7 -20.5 73 30 31 24.1 98.58   -28 LegendNANA
09:00 Legend Double Dagger -17.4 -21.3 72 32 28 24.1 98.52   -29 LegendNANA
10:00 Legend Double Dagger -16.7 -20.5 73 31 37 24.1 98.53   -29 Blowing Snow
11:00 Legend Double Dagger -15.1 -18.6 75 30 43 24.1 98.49   -28 Blowing Snow
12:00 Legend Double Dagger -13.2 -16.4 77 30 29 24.1 98.53   -24 Blowing Snow
13:00 Legend Double Dagger -12.0 -15.4 76 32 36 24.1 98.58   -23 Blowing Snow
14:00 Legend Double Dagger -12.2 -15.8 75 31 34 24.1 98.67   -23 Blowing Snow
15:00 Legend Double Dagger -12.5 -16.2 74 32 37 24.1 98.78   -24 Blowing Snow
16:00 Legend Double Dagger -13.1 -16.5 76 33 27 24.1 98.89   -23 Mainly Clear
17:00 Legend Double Dagger -13.4 -16.6 77 33 26 24.1 98.98   -23 Blowing Snow
18:00 Legend Double Dagger -12.8 -16.2 76 32 36 24.1 99.02   -24 Blowing Snow
19:00 Legend Double Dagger -12.6 -15.8 77 33 42 24.1 99.01   -24 Blowing Snow
20:00 Legend Double Dagger -13.0 -16.2 77 31 28 24.1 99.10   -23 LegendNANA
21:00 Legend Double Dagger -13.6 -16.7 78 30 31 24.1 99.12   -24 LegendNANA
22:00 Legend Double Dagger -11.9 -15.3 76 32 40 24.1 99.08   -23 Mostly Cloudy
23:00 Legend Double Dagger -12.7 -15.8 78 31 35 24.1 99.08   -24 LegendNANA

Notes on Data Quality.

Legend

  • E = Estimated
  • M = Missing
  • NA = Not Available
  • ‡ = Partner data that is not subject to review by the National Climate Archives
Date modified: